Time,TemperatureF,DewpointF,PressureIn,WindDirection,WindDirectionDegrees,WindSpeedMPH,WindSpeedGustMPH,Humidity,HourlyPrecipIn,Conditions,Clouds,dailyrainin,SolarRadiationWatts/m^2,SoftwareType,DateUTC
2013-04-05 00:03:00,40.0,40.0,-100.00,West,262,1.0,4.0,99,0.00,,,0.61,0.000000,,2013-04-05 04:03:00,
2013-04-05 00:33:00,40.0,40.0,-100.00,SW,228,2.0,5.0,99,0.00,,,0.58,0.000000,,2013-04-05 04:33:00,
2013-04-05 00:42:00,40.0,40.0,-100.00,SW,228,2.0,5.0,99,0.00,,,0.58,0.000000,,2013-04-05 04:42:00,
2013-04-05 00:52:00,40.0,40.0,-100.00,SW,228,2.0,5.0,99,0.00,,,0.58,0.000000,,2013-04-05 04:52:00,
2013-04-05 01:02:00,40.0,40.0,-100.00,SW,228,2.0,5.0,99,0.00,,,0.58,0.000000,,2013-04-05 05:02:00,
2013-04-05 01:32:00,40.0,40.0,-100.00,South,181,2.0,4.0,99,0.00,,,0.56,0.000000,,2013-04-05 05:32:00,
2013-04-05 01:42:00,40.0,40.0,-100.00,South,181,2.0,4.0,99,0.00,,,0.56,0.000000,,2013-04-05 05:42:00,
2013-04-05 01:53:00,40.0,40.0,-100.00,South,181,2.0,4.0,99,0.00,,,0.56,0.000000,,2013-04-05 05:53:00,
2013-04-05 02:02:00,40.0,40.0,-100.00,South,181,2.0,4.0,99,0.00,,,0.56,0.000000,,2013-04-05 06:02:00,
2013-04-05 03:32:00,39.0,39.0,-100.00,NNW,344,1.0,2.0,99,-99.99,,,0.50,0.000000,,2013-04-05 07:32:00,
2013-04-05 03:42:00,39.0,39.0,-100.00,NNW,344,1.0,2.0,99,-99.99,,,0.50,0.000000,,2013-04-05 07:42:00,
2013-04-05 03:53:00,39.0,39.0,-100.00,NNW,344,1.0,2.0,99,-99.99,,,0.50,0.000000,,2013-04-05 07:53:00,
2013-04-05 04:03:00,39.0,39.0,-100.00,NNW,344,1.0,2.0,99,-99.99,,,0.50,0.000000,,2013-04-05 08:03:00,
2013-04-05 04:33:00,40.0,40.0,-100.00,West,273,2.0,6.0,99,0.00,,,0.45,0.000000,,2013-04-05 08:33:00,
2013-04-05 04:43:00,40.0,40.0,-100.00,West,273,2.0,6.0,99,0.00,,,0.45,0.000000,,2013-04-05 08:43:00,
2013-04-05 04:52:00,40.0,40.0,-100.00,West,273,2.0,6.0,99,0.00,,,0.45,0.000000,,2013-04-05 08:52:00,
2013-04-05 05:02:00,40.0,40.0,-100.00,West,273,2.0,6.0,99,0.00,,,0.45,0.000000,,2013-04-05 09:02:00,
2013-04-05 06:33:00,42.0,39.0,-100.00,NNW,348,8.0,22.0,90,-99.99,,,0.44,0.000000,,2013-04-05 10:33:00,
2013-04-05 06:43:00,42.0,39.0,-100.00,NNW,348,8.0,22.0,90,-99.99,,,0.44,0.000000,,2013-04-05 10:43:00,
2013-04-05 06:53:00,42.0,39.0,-100.00,NNW,348,8.0,22.0,90,-99.99,,,0.44,0.000000,,2013-04-05 10:53:00,
2013-04-05 07:03:00,42.0,39.0,-100.00,NNW,348,8.0,22.0,90,-99.99,,,0.44,0.000000,,2013-04-05 11:03:00,
2013-04-05 07:33:00,42.0,40.0,-100.00,SSW,200,5.0,18.0,91,0.00,,,0.44,0.000000,,2013-04-05 11:33:00,
2013-04-05 07:42:00,42.0,40.0,-100.00,SSW,200,5.0,18.0,91,0.00,,,0.44,0.000000,,2013-04-05 11:42:00,
2013-04-05 07:52:00,42.0,40.0,-100.00,SSW,200,5.0,18.0,91,0.00,,,0.44,0.000000,,2013-04-05 11:52:00,
2013-04-05 08:02:00,42.0,40.0,-100.00,SSW,200,5.0,18.0,91,0.00,,,0.44,0.000000,,2013-04-05 12:02:00,
2013-04-05 08:32:00,44.0,40.0,-100.00,North,11,9.0,25.0,86,0.00,,,0.44,20.000000,,2013-04-05 12:32:00,
2013-04-05 08:42:00,44.0,40.0,-100.00,North,11,9.0,25.0,86,0.00,,,0.44,20.000000,,2013-04-05 12:42:00,
2013-04-05 08:52:00,44.0,40.0,-100.00,North,11,9.0,25.0,86,0.00,,,0.44,20.000000,,2013-04-05 12:52:00,
2013-04-05 09:02:00,44.0,40.0,-100.00,North,11,9.0,25.0,86,0.00,,,0.44,20.000000,,2013-04-05 13:02:00,
2013-04-05 09:32:00,46.0,40.0,-100.00,NE,44,7.0,24.0,80,0.00,,,0.38,193.000000,,2013-04-05 13:32:00,
2013-04-05 09:43:00,46.0,40.0,-100.00,NE,44,7.0,24.0,80,0.00,,,0.38,193.000000,,2013-04-05 13:43:00,
2013-04-05 09:53:00,46.0,40.0,-100.00,NE,44,7.0,24.0,80,0.00,,,0.38,193.000000,,2013-04-05 13:53:00,
2013-04-05 10:03:00,46.0,40.0,-100.00,NE,44,7.0,24.0,80,0.00,,,0.38,193.000000,,2013-04-05 14:03:00,
2013-04-05 10:37:00,50.0,41.0,-100.00,SE,124,6.0,24.0,72,0.00,,,0.33,345.000000,,2013-04-05 14:37:00,
2013-04-05 10:43:00,50.0,41.0,-100.00,SE,124,6.0,24.0,72,0.00,,,0.33,345.000000,,2013-04-05 14:43:00,
2013-04-05 10:54:00,50.0,41.0,-100.00,SE,124,6.0,24.0,72,0.00,,,0.33,345.000000,,2013-04-05 14:54:00,
2013-04-05 11:02:00,50.0,41.0,-100.00,SE,124,6.0,24.0,72,0.00,,,0.33,345.000000,,2013-04-05 15:02:00,
2013-04-05 11:34:00,52.0,40.0,-100.00,ESE,111,5.0,21.0,63,0.00,,,0.29,678.000000,,2013-04-05 15:34:00,
2013-04-05 11:43:00,52.0,40.0,-100.00,ESE,111,5.0,21.0,63,0.00,,,0.29,678.000000,,2013-04-05 15:43:00,
2013-04-05 11:54:00,52.0,40.0,-100.00,ESE,111,5.0,21.0,63,0.00,,,0.29,678.000000,,2013-04-05 15:54:00,
2013-04-05 12:03:00,52.0,40.0,-100.00,ESE,111,5.0,21.0,63,0.00,,,0.29,678.000000,,2013-04-05 16:03:00,
2013-04-05 12:33:00,55.0,43.0,-100.00,NNE,24,5.0,14.0,64,0.00,,,0.22,428.000000,,2013-04-05 16:33:00,
2013-04-05 12:43:00,55.0,43.0,-100.00,NNE,24,5.0,14.0,64,0.00,,,0.22,428.000000,,2013-04-05 16:43:00,
2013-04-05 12:53:00,55.0,43.0,-100.00,NNE,24,5.0,14.0,64,0.00,,,0.22,428.000000,,2013-04-05 16:53:00,
2013-04-05 13:03:00,55.0,43.0,-100.00,NNE,24,5.0,14.0,64,0.00,,,0.22,428.000000,,2013-04-05 17:03:00,
2013-04-05 13:33:00,57.0,41.0,-100.00,NE,43,5.0,15.0,56,0.00,,,0.14,836.000000,,2013-04-05 17:33:00,
2013-04-05 13:46:00,57.0,41.0,-100.00,NE,43,5.0,15.0,56,0.00,,,0.14,836.000000,,2013-04-05 17:46:00,
2013-04-05 13:53:00,57.0,41.0,-100.00,NE,43,5.0,15.0,56,0.00,,,0.14,836.000000,,2013-04-05 17:53:00,
2013-04-05 14:02:00,57.0,41.0,-100.00,NE,43,5.0,15.0,56,0.00,,,0.14,836.000000,,2013-04-05 18:02:00,
2013-04-05 14:34:00,61.0,35.0,-100.00,North,354,6.0,15.0,38,0.00,,,0.13,931.000000,,2013-04-05 18:34:00,
2013-04-05 14:43:00,61.0,35.0,-100.00,North,354,6.0,15.0,38,0.00,,,0.13,931.000000,,2013-04-05 18:43:00,
2013-04-05 14:53:00,61.0,35.0,-100.00,North,354,6.0,15.0,38,0.00,,,0.13,931.000000,,2013-04-05 18:53:00,
2013-04-05 15:02:00,61.0,35.0,-100.00,North,354,6.0,15.0,38,0.00,,,0.13,931.000000,,2013-04-05 19:02:00,
2013-04-05 15:33:00,61.0,40.0,-100.00,WNW,301,6.0,13.0,46,0.00,,,0.11,1057.000000,,2013-04-05 19:33:00,
2013-04-05 15:43:00,61.0,40.0,-100.00,WNW,301,6.0,13.0,46,0.00,,,0.11,1057.000000,,2013-04-05 19:43:00,
2013-04-05 15:53:00,61.0,40.0,-100.00,WNW,301,6.0,13.0,46,0.00,,,0.11,1057.000000,,2013-04-05 19:53:00,
2013-04-05 16:02:00,61.0,40.0,-100.00,WNW,301,6.0,13.0,46,0.00,,,0.11,1057.000000,,2013-04-05 20:02:00,
2013-04-05 16:33:00,63.0,40.0,-100.00,North,351,5.0,14.0,42,0.00,,,0.07,947.000000,,2013-04-05 20:33:00,
2013-04-05 16:43:00,63.0,40.0,-100.00,North,351,5.0,14.0,42,0.00,,,0.07,947.000000,,2013-04-05 20:43:00,
2013-04-05 16:53:00,63.0,40.0,-100.00,North,351,5.0,14.0,42,0.00,,,0.07,947.000000,,2013-04-05 20:53:00,
2013-04-05 17:02:00,63.0,40.0,-100.00,North,351,5.0,14.0,42,0.00,,,0.07,947.000000,,2013-04-05 21:02:00,
2013-04-05 17:35:00,62.0,33.0,-100.00,NNW,347,6.0,15.0,34,0.00,,,0.03,491.000000,,2013-04-05 21:35:00,
2013-04-05 17:44:00,62.0,33.0,-100.00,NNW,347,6.0,15.0,34,0.00,,,0.03,491.000000,,2013-04-05 21:44:00,
2013-04-05 17:55:00,62.0,33.0,-100.00,NNW,347,6.0,15.0,34,0.00,,,0.03,491.000000,,2013-04-05 21:55:00,
2013-04-05 18:03:00,62.0,33.0,-100.00,NNW,347,6.0,15.0,34,0.00,,,0.03,491.000000,,2013-04-05 22:03:00,
2013-04-05 18:34:00,61.0,29.0,-100.00,NNW,329,6.0,14.0,30,0.00,,,0.02,38.000000,,2013-04-05 22:34:00,
2013-04-05 18:44:00,61.0,29.0,-100.00,NNW,329,6.0,14.0,30,0.00,,,0.02,38.000000,,2013-04-05 22:44:00,
2013-04-05 18:53:00,61.0,29.0,-100.00,NNW,329,6.0,14.0,30,0.00,,,0.02,38.000000,,2013-04-05 22:53:00,
2013-04-05 19:03:00,61.0,29.0,-100.00,NNW,329,6.0,14.0,30,0.00,,,0.02,38.000000,,2013-04-05 23:03:00,
2013-04-05 19:33:00,59.0,30.0,-100.00,NNE,14,7.0,15.0,33,0.00,,,0.02,120.000000,,2013-04-05 23:33:00,
2013-04-05 19:43:00,59.0,30.0,-100.00,NNE,14,7.0,15.0,33,0.00,,,0.02,120.000000,,2013-04-05 23:43:00,
2013-04-05 19:53:00,59.0,30.0,-100.00,NNE,14,7.0,15.0,33,0.00,,,0.02,120.000000,,2013-04-05 23:53:00,
2013-04-05 20:03:00,59.0,30.0,-100.00,NNE,14,7.0,15.0,33,0.00,,,0.02,120.000000,,2013-04-06 00:03:00,
2013-04-05 20:33:00,57.0,34.0,-100.00,NNE,33,12.0,20.0,42,0.00,,,0.01,17.000000,,2013-04-06 00:33:00,
2013-04-05 20:43:00,57.0,34.0,-100.00,NNE,33,12.0,20.0,42,0.00,,,0.01,17.000000,,2013-04-06 00:43:00,
2013-04-05 20:52:00,57.0,34.0,-100.00,NNE,33,12.0,20.0,42,0.00,,,0.01,17.000000,,2013-04-06 00:52:00,
2013-04-05 21:02:00,57.0,34.0,-100.00,NNE,33,12.0,20.0,42,0.00,,,0.01,17.000000,,2013-04-06 01:02:00,
2013-04-05 21:33:00,55.0,31.0,-100.00,NNE,19,8.0,22.0,40,0.00,,,0.01,0.000000,,2013-04-06 01:33:00,
2013-04-05 21:43:00,55.0,31.0,-100.00,NNE,19,8.0,22.0,40,0.00,,,0.01,0.000000,,2013-04-06 01:43:00,
2013-04-05 21:53:00,55.0,31.0,-100.00,NNE,19,8.0,22.0,40,0.00,,,0.01,0.000000,,2013-04-06 01:53:00,
2013-04-05 22:03:00,55.0,31.0,-100.00,NNE,19,8.0,22.0,40,0.00,,,0.01,0.000000,,2013-04-06 02:03:00,
2013-04-05 22:33:00,55.0,31.0,-100.00,NNE,21,11.0,20.0,40,0.00,,,0.01,0.000000,,2013-04-06 02:33:00,
2013-04-05 22:43:00,55.0,31.0,-100.00,NNE,21,11.0,20.0,40,0.00,,,0.01,0.000000,,2013-04-06 02:43:00,
2013-04-05 22:53:00,55.0,31.0,-100.00,NNE,21,11.0,20.0,40,0.00,,,0.01,0.000000,,2013-04-06 02:53:00,
2013-04-05 23:03:00,55.0,31.0,-100.00,NNE,21,11.0,20.0,40,0.00,,,0.01,0.000000,,2013-04-06 03:03:00,
2013-04-05 23:34:00,54.0,29.0,-100.00,South,186,4.0,20.0,38,0.00,,,0.01,0.000000,,2013-04-06 03:34:00,
2013-04-05 23:43:00,54.0,29.0,-100.00,South,186,4.0,20.0,38,0.00,,,0.01,0.000000,,2013-04-06 03:43:00,
2013-04-05 23:55:00,54.0,29.0,-100.00,South,186,4.0,20.0,38,0.00,,,0.01,0.000000,,2013-04-06 03:55:00,